Weather History for EBSU - March, 2014

Change the Weather History Date:

Wednesday, March 26, 2014

  Actual Average Record
Temperature  
Mean Temperature 35 °F -  
Max Temperature 43 °F - - ()
Min Temperature 27 °F - - ()
Degree Days  
Heating Degree Days 30    
Moisture  
Dew Point 27 °F    
Average Humidity 64    
Maximum Humidity 89    
Minimum Humidity 31    
Precipitation  
Precipitation 0.00 in - - ()
Sea Level Pressure  
Sea Level Pressure 29.95 in    
Wind  
Wind Speed 6 mph ()    
Max Wind Speed 9 mph    
Max Gust Speed -    
Visibility 11.7 miles    
Events      
T = Trace of Precipitation, MM = Missing Value Source: Averaged Metar Reports

Daily Weather History Graph

Daily Weather History Graph

Search for Another Location

Airport or City:

Trip Planner

Search our weather history database for the weather conditions in past years. The results will help you decide how hot, cold, wet, or windy it might be!

Date:

Astronomy

Mar. 26, 2014 Rise Set
Actual Time 6:28 AM CET 7:00 PM CET
Civil Twilight 5:56 AM CET 7:33 PM CET
Nautical Twilight 5:17 AM CET 8:11 PM CET
Astronomical Twilight 4:37 AM CET 8:52 PM CET
Moon 3:51 AM CET (3/26) 1:56 PM CET (3/26)
Length of Visible Light 13h 36m
Length of Day
12h 32m
Waning Crescent, 24% of the Moon is Illuminated
Mar 26
Waning Crescent
Mar 30
New
Apr 7
First Quarter
Apr 15
Full
Apr 22
Last Quarter

Hourly Weather History & Observations

Time (CET) Temp. Dew Point Humidity Pressure Visibility Wind Dir Wind Speed Gust Speed Precip Events Conditions
12:00 AM 30 °F 27 °F 84% 29.92 in 9 mi ENE 6.7 mph - -  
1:00 AM 33 °F 28 °F 73% 29.91 in 9 mi East 6.7 mph - -  
2:00 AM 29 °F 27 °F 87% 29.93 in 6 mi ENE 6.7 mph - -  
3:00 AM 28 °F 26 °F 89% 29.94 in 6 mi ENE 6.7 mph - -  
4:00 AM 30 °F 27 °F 85% 29.93 in - NE 4.5 mph - -  
5:00 AM 29 °F 26 °F 85% 29.94 in 7 mi NE 4.5 mph - -  
6:00 AM 29 °F 26 °F 82% 29.96 in 6 mi NE 4.5 mph - -   Scattered Clouds
7:00 AM 29 °F 26 °F 86% 29.97 in - NE 6.7 mph - -  
8:00 AM 32 °F 28 °F 81% 29.97 in - ENE 6.7 mph - -  
9:00 AM 36 °F 29 °F 65% 29.97 in 8 mi NE 6.7 mph - -  
10:00 AM 40 °F 28 °F 49% 29.96 in 18 mi ENE 6.7 mph - -   Scattered Clouds
11:00 AM 42 °F 25 °F 38% 29.95 in 14 mi NE 8.9 mph - -   Scattered Clouds
12:00 PM 42 °F 22 °F 31% 29.94 in 15 mi East 6.7 mph - -   Overcast
1:00 PM 41 °F 24 °F 38% 29.94 in 14 mi ENE 4.5 mph - -   Clear
2:00 PM 42 °F 22 °F 33% 29.93 in 19 mi North 6.7 mph - -   Overcast
3:00 PM 41 °F 26 °F 43% 29.93 in 14 mi ENE 6.7 mph - -   Mostly Cloudy
4:00 PM 41 °F 26 °F 44% 29.93 in 14 mi ESE 4.5 mph - -  
5:00 PM 42 °F 27 °F 44% 29.92 in 14 mi NE 6.7 mph - -   Partly Cloudy
6:00 PM 40 °F 27 °F 48% 29.94 in 14 mi ENE 2.2 mph - -  
7:00 PM 38 °F 29 °F 60% 29.96 in 16 mi East 4.5 mph - -  
8:00 PM 35 °F 29 °F 69% 29.98 in 13 mi East 8.9 mph - -  
9:00 PM 33 °F 28 °F 76% 29.99 in 11 mi NE 6.7 mph - -  
10:00 PM 33 °F 28 °F 77% 29.99 in 10 mi East 8.9 mph - -   Scattered Clouds
11:00 PM 33 °F 28 °F 76% 29.98 in 8 mi ENE 6.7 mph - -